Skip Page Navigation
NASA JPL Caltech
NASA Logo - Jet Propulsion Laboratory + View the NASA Portal
+ Near-Earth Object (NEO) Program
Search JPL
JPL Home Earth Solar System Stars & Galaxies Technology
JPL Solar System Dynamics
BODIES ORBITS EPHEMERIDES TOOLS PHYSICAL DATA DISCOVERY FAQ SITE MAP
JPL Small-Body Database Browser
Search: [ help ]  
37682 (1995 GZ6)
Classification: Main-belt Asteroid          SPK-ID: 2037682
Ephemeris | Orbit Diagram | Orbital Elements | Physical Parameters | Discovery Circumstances ]

[ show orbit diagram ]
Orbital Elements at Epoch 2457600.5 (2016-Jul-31.0) TDB
Reference: JPL 14 (heliocentric ecliptic J2000)
 Element Value Uncertainty (1-sigma)   Units 
e .1700259691064389 5.0124e-08  
a 2.305953039169419 1.3623e-08 au
q 1.913881138970701 1.1728e-07 au
i 6.251138848866112 5.648e-06 deg
node 126.5879665146674 4.8821e-05 deg
peri 147.5888546233344 5.3613e-05 deg
M 315.3513632279551 2.5923e-05 deg
tp 2457759.127988603966
(2017-Jan-05.62798860)
9.2614e-05 JED
period 1279.010514676736
3.50
1.1334e-05
3.103e-08
d
yr
n .2814675844091776 2.4943e-09 deg/d
Q 2.698024939368138 1.5939e-08 au
  Orbit Determination Parameters
   # obs. used (total)      830  
   data-arc span      7688 days (21.05 yr)  
   first obs. used      1995-03-27  
   last obs. used      2016-04-13  
   planetary ephem.      DE431  
   SB-pert. ephem.      SB431-BIG16  
   condition code      0  
   fit RMS      .50008  
   data source      ORB  
   producer      Otto Matic  
   solution date      2016-Apr-25 14:11:02  

Additional Information
 Earth MOID = .900711 au 
 Jupiter MOID = 2.41919 au 
 T_jup = 3.561 
[ show covariance matrix ]

Ephemeris | Orbit Diagram | Orbital Elements | Physical Parameters | Discovery Circumstances ]

Physical Parameter Table
Parameter Symbol Value Units Sigma Reference Notes
absolute magnitude H 15.1 mag n/a MPO324649  

37682 (1995 GZ6)          Discovered 1995-Apr-04 by BAO Schmidt CCD Asteroid Program at Xinglong
Reference: 20020328/Numbers.arcLast Updated: 2004-04-19

Alternate Designations
 1995 GZ6 = 1999 LW27 = 2000 RF61 
Ephemeris | Orbit Diagram | Orbital Elements | Physical Parameters | Discovery Circumstances ]
ABOUT SSD CREDITS/AWARDS PRIVACY/COPYRIGHT GLOSSARY LINKS
FirstGov 2016-May-01 02:20 UT
(server date/time)  
NASA Home Page
Site Manager:   Ryan S. Park
Webmaster  Alan B. Chamberlin